EDT,Max TemperatureF,Mean TemperatureF,Min TemperatureF,Max Dew PointF,MeanDew PointF,Min DewpointF,Max Humidity, Mean Humidity, Min Humidity, Max Sea Level PressureIn, Mean Sea Level PressureIn, Min Sea Level PressureIn, Max VisibilityMiles, Mean VisibilityMiles, Min VisibilityMiles, Max Wind SpeedMPH, Mean Wind SpeedMPH, Max Gust SpeedMPH,PrecipitationIn, CloudCover, Events, WindDirDegrees
2014-8-1,93,83,75,76,74,71,90,76,54,30.02,29.99,29.95,10,10,6,13,3,,0.00,3,Thunderstorm,99
2014-8-2,97,86,75,77,74,70,94,72,41,30.01,29.96,29.90,10,10,10,12,4,21,0.00,2,Thunderstorm,54
2014-8-3,93,85,77,77,75,71,94,80,51,29.96,29.94,29.91,10,9,2,18,5,23,0.26,4,Rain-Thunderstorm,306
2014-8-4,87,80,73,78,74,72,97,89,69,30.03,29.98,29.95,10,8,1,16,5,21,1.07,5,Rain-Thunderstorm,194
2014-8-5,90,82,75,79,75,70,94,85,59,30.14,30.06,29.97,10,8,1,16,6,25,1.82,5,Rain-Thunderstorm,236
2014-8-6,91,84,77,78,76,73,94,75,55,30.10,30.05,30.01,10,10,9,13,3,,0.00,1,Thunderstorm,314
2014-8-7,93,86,79,78,76,73,94,78,57,30.05,30.02,29.97,10,10,10,14,3,21,0.00,1,Thunderstorm,298
2014-8-8,93,84,75,78,74,69,94,77,52,30.08,30.03,29.99,10,10,10,20,5,22,0.00,2,Rain-Thunderstorm,117
2014-8-9,91,82,75,77,74,69,91,76,52,30.11,30.07,30.03,10,10,10,13,5,,0.00,1,,207
2014-8-10,93,84,78,78,74,71,90,73,52,30.11,30.07,30.04,10,10,10,14,4,20,0.00,1,,220
2014-8-11,93,83,75,76,73,72,91,72,52,30.10,30.05,30.02,10,10,10,13,6,18,0.00,0,,210
2014-8-12,93,84,75,77,74,71,94,74,50,30.06,30.02,29.99,10,9,5,14,4,,0.00,1,Rain,203
2014-8-13,93,86,79,77,75,72,90,71,50,30.06,30.02,30.01,10,10,10,16,8,,0.00,1,Rain,219
2014-8-14,93,86,78,79,76,74,91,79,56,30.07,30.04,30.00,10,9,1,20,5,30,0.61,2,Rain-Thunderstorm,150
2014-8-15,91,83,75,77,74,71,94,79,61,30.09,30.05,30.00,10,9,2,16,7,28,0.06,2,Rain-Thunderstorm,229
2014-8-16,91,83,75,78,75,73,94,78,58,30.12,30.09,30.04,10,10,2,15,6,20,0.36,3,Rain-Thunderstorm,150
2014-8-17,95,85,77,77,74,72,90,71,49,30.14,30.09,30.05,10,10,10,12,4,18,0.00,1,Rain-Thunderstorm,87
2014-8-18,93,84,78,77,74,71,94,73,55,30.11,30.04,30.00,10,9,0,23,4,36,1.06,3,Rain-Thunderstorm,334
2014-8-19,93,85,77,77,75,71,94,72,51,30.09,30.03,29.99,10,10,10,12,3,,0.00,0,,337
2014-8-20,96,87,78,77,74,70,93,69,43,30.13,30.07,30.02,10,10,10,10,4,,0.00,1,,357
2014-8-21,96,87,78,77,75,71,90,70,46,30.15,30.10,30.05,10,10,10,9,5,,0.00,2,Thunderstorm,31
2014-8-22,96,85,75,76,73,70,94,69,49,30.13,30.04,29.99,10,10,1,23,4,32,0.16,2,Rain-Thunderstorm,333
2014-8-23,97,86,75,77,74,70,94,69,43,30.01,29.95,29.87,10,10,10,8,3,,0.00,1,,42
2014-8-24,98,86,73,79,75,71,100,79,43,29.91,29.84,29.75,10,8,0,32,7,45,0.76,2,Fog-Rain-Thunderstorm,22
2014-8-25,93,85,77,77,75,72,96,75,52,29.86,29.82,29.78,10,10,6,24,10,32,0.00,2,,34
2014-8-26,93,84,75,74,71,68,91,68,44,29.96,29.90,29.85,10,10,10,18,10,24,0.00,1,,55
2014-8-27,93,82,72,73,70,65,91,71,41,30.01,29.96,29.93,10,10,10,10,5,,0.00,1,,51
2014-8-28,91,82,75,77,75,73,94,80,59,30.04,29.99,29.95,10,10,10,14,7,,0.06,4,Rain-Thunderstorm,103
2014-8-29,93,83,73,78,73,68,94,80,52,30.12,30.05,30.01,10,9,0,29,5,45,0.37,3,Rain-Thunderstorm,83
2014-8-30,95,84,75,78,75,71,94,76,49,30.15,30.09,30.03,10,10,7,22,6,28,0.03,1,Rain-Thunderstorm,89
2014-8-31,95,85,75,78,74,73,94,76,49,30.15,30.11,30.06,10,10,7,13,6,17,0.00,0,,90